Location: Trebic
(49.2170°N, 15.8830°E)
Time: 00:07:23
(UTC+02:00)

Transit 2A Rocket - Pass Details

Date: 25 July 2019
Orbit: 590 x 913 km, 66.7° (Epoch: 21 August)

Event Time Altitude Azimuth Distance (km) Brightness Sun altitude
Rises 13:11:58 0° 309° (NW) 3,107 8.0 60.4°
Reaches altitude 10° 13:15:38 10° 282° (WNW) 2,106 7.4 60.3°
Maximum altitude 13:17:42 13° 256° (WSW) 1,882 7.4 60.3°
Drops below altitude 10° 13:19:42 10° 230° (SW) 2,025 7.7 60.3°
Sets 13:23:05 0° 202° (SSW) 2,874 8.4 60.2°
